Time,TemperatureF,DewpointF,PressureIn,WindDirection,WindDirectionDegrees,WindSpeedMPH,WindSpeedGustMPH,Humidity,HourlyPrecipIn,Conditions,Clouds,dailyrainin,SoftwareType,DateUTC
2013-04-30 00:01:00,54.1,40.6,30.22,WNW,282,0.0,0.0,60,0.00,,,0.00,WUHU216DAVISVP2,2013-04-30 04:01:00,
2013-04-30 00:02:00,54.0,41.0,30.21,WNW,282,0.0,0.0,61,0.00,,,0.00,WUHU216DAVISVP2,2013-04-30 04:02:00,
2013-04-30 00:07:00,54.0,42.2,30.21,WNW,282,0.0,0.0,64,0.00,,,0.00,WUHU216DAVISVP2,2013-04-30 04:07:00,
2013-04-30 00:12:00,53.9,42.5,30.22,WNW,282,0.0,0.0,65,0.00,,,0.00,WUHU216DAVISVP2,2013-04-30 04:12:00,
2013-04-30 00:17:00,53.8,42.8,30.21,WNW,282,0.0,0.0,66,0.00,,,0.00,WUHU216DAVISVP2,2013-04-30 04:17:00,
2013-04-30 00:22:00,53.7,42.3,30.22,WNW,282,0.0,0.0,65,0.00,,,0.00,WUHU216DAVISVP2,2013-04-30 04:22:00,
2013-04-30 00:27:00,53.6,41.0,30.21,WNW,282,0.0,0.0,62,0.00,,,0.00,WUHU216DAVISVP2,2013-04-30 04:27:00,
2013-04-30 00:32:00,53.5,40.1,30.21,WNW,282,0.0,0.0,60,0.00,,,0.00,WUHU216DAVISVP2,2013-04-30 04:32:00,
2013-04-30 00:37:00,53.5,41.7,30.21,WNW,282,0.0,0.0,64,0.00,,,0.00,WUHU216DAVISVP2,2013-04-30 04:37:00,
2013-04-30 00:42:00,53.4,42.0,30.21,WNW,282,0.0,0.0,65,0.00,,,0.00,WUHU216DAVISVP2,2013-04-30 04:42:00,
2013-04-30 00:47:00,53.3,44.6,30.22,WNW,282,0.0,0.0,72,0.00,,,0.00,WUHU216DAVISVP2,2013-04-30 04:47:00,
2013-04-30 00:52:00,53.2,44.1,30.22,WNW,282,0.0,0.0,71,0.00,,,0.00,WUHU216DAVISVP2,2013-04-30 04:52:00,
2013-04-30 00:57:00,53.1,43.3,30.22,WNW,282,0.0,0.0,69,0.00,,,0.00,WUHU216DAVISVP2,2013-04-30 04:57:00,
2013-04-30 01:02:00,52.9,42.7,30.22,WNW,282,0.0,0.0,68,0.00,,,0.00,WUHU216DAVISVP2,2013-04-30 05:02:00,
2013-04-30 01:07:00,52.8,42.3,30.22,WNW,282,0.0,0.0,67,0.00,,,0.00,WUHU216DAVISVP2,2013-04-30 05:07:00,
2013-04-30 01:12:00,52.7,42.2,30.22,WNW,282,0.0,0.0,67,0.00,,,0.00,WUHU216DAVISVP2,2013-04-30 05:12:00,
2013-04-30 01:17:00,52.5,41.6,30.22,WNW,282,0.0,0.0,66,0.00,,,0.00,WUHU216DAVISVP2,2013-04-30 05:17:00,
2013-04-30 01:22:00,52.4,39.9,30.22,WNW,282,0.0,0.0,62,0.00,,,0.00,WUHU216DAVISVP2,2013-04-30 05:22:00,
2013-04-30 01:27:00,52.4,40.3,30.21,WNW,282,0.0,0.0,63,0.00,,,0.00,WUHU216DAVISVP2,2013-04-30 05:27:00,
2013-04-30 01:32:00,52.3,41.8,30.22,WNW,282,0.0,0.0,67,0.00,,,0.00,WUHU216DAVISVP2,2013-04-30 05:32:00,
2013-04-30 01:37:00,52.1,40.8,30.22,WNW,282,0.0,0.0,65,0.00,,,0.00,WUHU216DAVISVP2,2013-04-30 05:37:00,
2013-04-30 01:42:00,52.1,41.2,30.21,WNW,282,0.0,0.0,66,0.00,,,0.00,WUHU216DAVISVP2,2013-04-30 05:42:00,
2013-04-30 01:47:00,52.0,41.1,30.21,WNW,282,0.0,0.0,66,0.00,,,0.00,WUHU216DAVISVP2,2013-04-30 05:47:00,
2013-04-30 01:52:00,51.9,41.4,30.21,WNW,282,0.0,0.0,67,0.00,,,0.00,WUHU216DAVISVP2,2013-04-30 05:52:00,
2013-04-30 01:57:00,51.8,41.7,30.22,WNW,282,0.0,0.0,68,0.00,,,0.00,WUHU216DAVISVP2,2013-04-30 05:57:00,
2013-04-30 02:02:00,51.7,41.6,30.21,WNW,282,0.0,0.0,68,0.00,,,0.00,WUHU216DAVISVP2,2013-04-30 06:02:00,
2013-04-30 02:07:00,51.6,42.2,30.21,WNW,282,0.0,0.0,70,0.00,,,0.00,WUHU216DAVISVP2,2013-04-30 06:07:00,
2013-04-30 02:12:00,51.5,42.1,30.21,WNW,282,0.0,0.0,70,0.00,,,0.00,WUHU216DAVISVP2,2013-04-30 06:12:00,
2013-04-30 02:17:00,51.4,42.0,30.22,WNW,282,0.0,0.0,70,0.00,,,0.00,WUHU216DAVISVP2,2013-04-30 06:17:00,
2013-04-30 02:22:00,51.4,41.7,30.22,WNW,282,0.0,0.0,69,0.00,,,0.00,WUHU216DAVISVP2,2013-04-30 06:22:00,
2013-04-30 02:27:00,51.3,41.6,30.22,WNW,282,0.0,0.0,69,0.00,,,0.00,WUHU216DAVISVP2,2013-04-30 06:27:00,
2013-04-30 02:32:00,51.1,41.8,30.21,WNW,282,0.0,0.0,70,0.00,,,0.00,WUHU216DAVISVP2,2013-04-30 06:32:00,
2013-04-30 02:37:00,51.0,40.5,30.21,WNW,282,0.0,0.0,67,0.00,,,0.00,WUHU216DAVISVP2,2013-04-30 06:37:00,
2013-04-30 02:42:00,50.9,41.2,30.22,WNW,282,0.0,0.0,69,0.00,,,0.00,WUHU216DAVISVP2,2013-04-30 06:42:00,
2013-04-30 02:47:00,50.8,41.1,30.22,WNW,282,0.0,0.0,69,0.00,,,0.00,WUHU216DAVISVP2,2013-04-30 06:47:00,
2013-04-30 02:52:00,50.8,41.1,30.22,WNW,282,0.0,0.0,69,0.00,,,0.00,WUHU216DAVISVP2,2013-04-30 06:52:00,
2013-04-30 02:57:00,50.7,41.0,30.22,WNW,282,0.0,0.0,69,0.00,,,0.00,WUHU216DAVISVP2,2013-04-30 06:57:00,
2013-04-30 03:02:00,50.6,40.5,30.22,WNW,282,0.0,0.0,68,0.00,,,0.00,WUHU216DAVISVP2,2013-04-30 07:02:00,
2013-04-30 03:07:00,50.6,40.2,30.21,WNW,282,0.0,0.0,67,0.00,,,0.00,WUHU216DAVISVP2,2013-04-30 07:07:00,
2013-04-30 03:12:00,50.5,40.1,30.21,WNW,282,0.0,0.0,67,0.00,,,0.00,WUHU216DAVISVP2,2013-04-30 07:12:00,
2013-04-30 03:17:00,50.5,40.4,30.21,WNW,282,0.0,0.0,68,0.00,,,0.00,WUHU216DAVISVP2,2013-04-30 07:17:00,
2013-04-30 03:22:00,50.5,41.2,30.22,WNW,282,0.0,0.0,70,0.00,,,0.00,WUHU216DAVISVP2,2013-04-30 07:22:00,
2013-04-30 03:27:00,50.4,41.1,30.22,WNW,282,0.0,0.0,70,0.00,,,0.00,WUHU216DAVISVP2,2013-04-30 07:27:00,
2013-04-30 03:32:00,50.4,41.5,30.22,WNW,282,0.0,0.0,71,0.00,,,0.00,WUHU216DAVISVP2,2013-04-30 07:32:00,
2013-04-30 03:37:00,50.3,41.0,30.22,WNW,282,0.0,0.0,70,0.00,,,0.00,WUHU216DAVISVP2,2013-04-30 07:37:00,
2013-04-30 03:42:00,50.3,41.0,30.22,WNW,282,0.0,0.0,70,0.00,,,0.00,WUHU216DAVISVP2,2013-04-30 07:42:00,
2013-04-30 03:47:00,50.2,41.6,30.22,WNW,282,0.0,0.0,72,0.00,,,0.00,WUHU216DAVISVP2,2013-04-30 07:47:00,
2013-04-30 03:52:00,50.2,41.6,30.22,WNW,282,0.0,0.0,72,0.00,,,0.00,WUHU216DAVISVP2,2013-04-30 07:52:00,
2013-04-30 03:57:00,50.1,41.9,30.23,WNW,282,0.0,0.0,73,0.00,,,0.00,WUHU216DAVISVP2,2013-04-30 07:57:00,
2013-04-30 04:02:00,50.0,41.8,30.23,WNW,282,0.0,0.0,73,0.00,,,0.00,WUHU216DAVISVP2,2013-04-30 08:02:00,
2013-04-30 04:07:00,49.9,41.3,30.22,WNW,282,0.0,0.0,72,0.00,,,0.00,WUHU216DAVISVP2,2013-04-30 08:07:00,
2013-04-30 04:12:00,49.9,41.7,30.22,WNW,282,0.0,0.0,73,0.00,,,0.00,WUHU216DAVISVP2,2013-04-30 08:12:00,
2013-04-30 04:17:00,49.8,41.2,30.23,WNW,282,0.0,0.0,72,0.00,,,0.00,WUHU216DAVISVP2,2013-04-30 08:17:00,
2013-04-30 04:22:00,49.7,41.5,30.23,WNW,282,0.0,0.0,73,0.00,,,0.00,WUHU216DAVISVP2,2013-04-30 08:22:00,
2013-04-30 04:27:00,49.6,41.0,30.23,WNW,282,0.0,0.0,72,0.00,,,0.00,WUHU216DAVISVP2,2013-04-30 08:27:00,
2013-04-30 04:32:00,49.6,41.0,30.23,WNW,282,0.0,0.0,72,0.00,,,0.00,WUHU216DAVISVP2,2013-04-30 08:32:00,
2013-04-30 04:37:00,49.5,40.9,30.23,WNW,282,0.0,0.0,72,0.00,,,0.00,WUHU216DAVISVP2,2013-04-30 08:37:00,
2013-04-30 04:42:00,49.5,41.3,30.23,WNW,282,0.0,0.0,73,0.00,,,0.00,WUHU216DAVISVP2,2013-04-30 08:42:00,
2013-04-30 04:47:00,49.4,41.2,30.23,WNW,282,0.0,0.0,73,0.00,,,0.00,WUHU216DAVISVP2,2013-04-30 08:47:00,
2013-04-30 04:52:00,49.3,40.7,30.23,WNW,282,0.0,0.0,72,0.00,,,0.00,WUHU216DAVISVP2,2013-04-30 08:52:00,
2013-04-30 04:57:00,49.2,41.0,30.23,WNW,282,0.0,0.0,73,0.00,,,0.00,WUHU216DAVISVP2,2013-04-30 08:57:00,
2013-04-30 05:02:00,49.0,40.5,30.23,WNW,282,0.0,0.0,72,0.00,,,0.00,WUHU216DAVISVP2,2013-04-30 09:02:00,
2013-04-30 05:07:00,48.8,40.3,30.24,WNW,282,0.0,0.0,72,0.00,,,0.00,WUHU216DAVISVP2,2013-04-30 09:07:00,
2013-04-30 05:12:00,48.6,40.1,30.24,WNW,282,0.0,0.0,72,0.00,,,0.00,WUHU216DAVISVP2,2013-04-30 09:12:00,
2013-04-30 05:17:00,48.3,40.1,30.24,WNW,282,0.0,0.0,73,0.00,,,0.00,WUHU216DAVISVP2,2013-04-30 09:17:00,
2013-04-30 05:22:00,48.1,39.9,30.24,WNW,282,0.0,0.0,73,0.00,,,0.00,WUHU216DAVISVP2,2013-04-30 09:22:00,
2013-04-30 05:27:00,47.8,40.0,30.24,WNW,282,0.0,0.0,74,0.00,,,0.00,WUHU216DAVISVP2,2013-04-30 09:27:00,
2013-04-30 05:32:00,47.4,40.3,30.24,WNW,282,0.0,0.0,76,0.00,,,0.00,WUHU216DAVISVP2,2013-04-30 09:32:00,
2013-04-30 05:37:00,47.1,40.0,30.24,WNW,282,0.0,0.0,76,0.00,,,0.00,WUHU216DAVISVP2,2013-04-30 09:37:00,
2013-04-30 05:42:00,46.9,39.8,30.25,WNW,282,0.0,0.0,76,0.00,,,0.00,WUHU216DAVISVP2,2013-04-30 09:42:00,
2013-04-30 05:47:00,46.5,39.7,30.25,WNW,282,0.0,0.0,77,0.00,,,0.00,WUHU216DAVISVP2,2013-04-30 09:47:00,
2013-04-30 05:52:00,46.2,39.8,30.25,WNW,282,0.0,0.0,78,0.00,,,0.00,WUHU216DAVISVP2,2013-04-30 09:52:00,
2013-04-30 05:57:00,45.8,39.7,30.25,WNW,282,0.0,0.0,79,0.00,,,0.00,WUHU216DAVISVP2,2013-04-30 09:57:00,
2013-04-30 06:02:00,45.5,39.4,30.25,WNW,282,0.0,0.0,79,0.00,,,0.00,WUHU216DAVISVP2,2013-04-30 10:02:00,
2013-04-30 06:07:00,45.3,39.5,30.25,WNW,282,0.0,0.0,80,0.00,,,0.00,WUHU216DAVISVP2,2013-04-30 10:07:00,
2013-04-30 06:12:00,45.1,39.3,30.25,WNW,282,0.0,0.0,80,0.00,,,0.00,WUHU216DAVISVP2,2013-04-30 10:12:00,
2013-04-30 06:17:00,44.9,39.4,30.25,WNW,282,0.0,0.0,81,0.00,,,0.00,WUHU216DAVISVP2,2013-04-30 10:17:00,
2013-04-30 06:22:00,44.7,39.2,30.25,WNW,282,0.0,0.0,81,0.00,,,0.00,WUHU216DAVISVP2,2013-04-30 10:22:00,
2013-04-30 06:27:00,44.5,39.4,30.26,WNW,282,0.0,0.0,82,0.00,,,0.00,WUHU216DAVISVP2,2013-04-30 10:27:00,
2013-04-30 06:32:00,44.5,39.4,30.26,WNW,282,0.0,0.0,82,0.00,,,0.00,WUHU216DAVISVP2,2013-04-30 10:32:00,
2013-04-30 06:37:00,44.4,39.6,30.26,WNW,282,0.0,0.0,83,0.00,,,0.00,WUHU216DAVISVP2,2013-04-30 10:37:00,
2013-04-30 06:42:00,44.3,39.5,30.26,WNW,282,0.0,0.0,83,0.00,,,0.00,WUHU216DAVISVP2,2013-04-30 10:42:00,
2013-04-30 06:47:00,44.4,39.9,30.26,WNW,282,0.0,0.0,84,0.00,,,0.00,WUHU216DAVISVP2,2013-04-30 10:47:00,
2013-04-30 06:52:00,44.4,39.9,30.26,WNW,282,0.0,0.0,84,0.00,,,0.00,WUHU216DAVISVP2,2013-04-30 10:52:00,
2013-04-30 06:57:00,44.5,39.7,30.27,WNW,282,0.0,0.0,83,0.00,,,0.00,WUHU216DAVISVP2,2013-04-30 10:57:00,
2013-04-30 07:02:00,44.7,40.2,30.27,WNW,282,0.0,0.0,84,0.00,,,0.00,WUHU216DAVISVP2,2013-04-30 11:02:00,
2013-04-30 07:07:00,45.2,40.6,30.27,WNW,282,0.0,0.0,84,0.00,,,0.00,WUHU216DAVISVP2,2013-04-30 11:07:00,
2013-04-30 07:12:00,45.7,40.8,30.27,WNW,282,0.0,0.0,83,0.00,,,0.00,WUHU216DAVISVP2,2013-04-30 11:12:00,
2013-04-30 07:17:00,46.0,41.1,30.27,WNW,282,0.0,0.0,83,0.00,,,0.00,WUHU216DAVISVP2,2013-04-30 11:17:00,
2013-04-30 07:22:00,46.4,40.6,30.27,WNW,282,0.0,0.0,80,0.00,,,0.00,WUHU216DAVISVP2,2013-04-30 11:22:00,
2013-04-30 07:27:00,46.8,39.7,30.27,WNW,282,0.0,0.0,76,0.00,,,0.00,WUHU216DAVISVP2,2013-04-30 11:27:00,
2013-04-30 07:32:00,47.7,40.6,30.28,WNW,282,0.0,0.0,76,0.00,,,0.00,WUHU216DAVISVP2,2013-04-30 11:32:00,
2013-04-30 07:37:00,49.1,39.8,30.28,WNW,282,1.0,1.0,70,0.00,,,0.00,WUHU216DAVISVP2,2013-04-30 11:37:00,
2013-04-30 07:42:00,50.1,39.3,30.28,WNW,282,1.0,1.0,66,0.00,,,0.00,WUHU216DAVISVP2,2013-04-30 11:42:00,
2013-04-30 07:47:00,50.8,40.0,30.28,WNW,282,0.0,1.0,66,0.00,,,0.00,WUHU216DAVISVP2,2013-04-30 11:47:00,
2013-04-30 07:52:00,51.4,39.3,30.28,WNW,282,0.0,1.0,63,0.00,,,0.00,WUHU216DAVISVP2,2013-04-30 11:52:00,
2013-04-30 07:57:00,51.8,39.3,30.28,WNW,282,1.0,1.0,62,0.00,,,0.00,WUHU216DAVISVP2,2013-04-30 11:57:00,
2013-04-30 08:02:00,52.5,39.1,30.28,WNW,282,1.0,1.0,60,0.00,,,0.00,WUHU216DAVISVP2,2013-04-30 12:02:00,
2013-04-30 08:07:00,53.3,37.1,30.28,WNW,282,0.0,1.0,54,0.00,,,0.00,WUHU216DAVISVP2,2013-04-30 12:07:00,
2013-04-30 08:12:00,53.9,37.2,30.28,WNW,282,0.0,1.0,53,0.00,,,0.00,WUHU216DAVISVP2,2013-04-30 12:12:00,
2013-04-30 08:17:00,54.5,36.2,30.28,WNW,282,1.0,1.0,50,0.00,,,0.00,WUHU216DAVISVP2,2013-04-30 12:17:00,
2013-04-30 08:22:00,55.4,36.5,30.28,WNW,282,1.0,1.0,49,0.00,,,0.00,WUHU216DAVISVP2,2013-04-30 12:22:00,
2013-04-30 08:27:00,56.2,34.5,30.28,West,281,1.3,2.0,44,0.00,,,0.00,WUHU216DAVISVP2,2013-04-30 12:27:00,
2013-04-30 08:32:00,56.8,34.4,30.28,WSW,248,0.0,3.0,43,0.00,,,0.00,WUHU216DAVISVP2,2013-04-30 12:32:00,
2013-04-30 08:37:00,57.4,31.1,30.28,WSW,248,1.0,3.0,37,0.00,,,0.00,WUHU216DAVISVP2,2013-04-30 12:37:00,
2013-04-30 08:42:00,58.1,31.1,30.28,WSW,248,1.0,3.0,36,0.00,,,0.00,WUHU216DAVISVP2,2013-04-30 12:42:00,
2013-04-30 08:47:00,58.4,29.2,30.28,West,259,2.0,3.0,33,0.00,,,0.00,WUHU216DAVISVP2,2013-04-30 12:47:00,
2013-04-30 08:52:00,58.8,29.5,30.28,WSW,250,1.0,3.0,33,0.00,,,0.00,WUHU216DAVISVP2,2013-04-30 12:52:00,
2013-04-30 08:57:00,59.2,26.7,30.28,West,279,3.0,4.0,29,0.00,,,0.00,WUHU216DAVISVP2,2013-04-30 12:57:00,
2013-04-30 09:02:00,59.4,26.9,30.28,SW,219,2.2,4.0,29,0.00,,,0.00,WUHU216DAVISVP2,2013-04-30 13:02:00,
2013-04-30 09:07:00,59.8,24.7,30.28,NW,317,2.0,4.0,26,0.00,,,0.00,WUHU216DAVISVP2,2013-04-30 13:07:00,
2013-04-30 09:12:00,60.0,23.9,30.28,NNW,340,1.2,4.0,25,0.00,,,0.00,WUHU216DAVISVP2,2013-04-30 13:12:00,
2013-04-30 09:17:00,60.4,21.3,30.28,WSW,258,1.0,4.0,22,0.00,,,0.00,WUHU216DAVISVP2,2013-04-30 13:17:00,
2013-04-30 09:22:00,60.9,20.6,30.28,WSW,250,1.0,4.0,21,0.00,,,0.00,WUHU216DAVISVP2,2013-04-30 13:22:00,
2013-04-30 09:27:00,61.3,22.0,30.28,WNW,284,1.0,4.0,22,0.00,,,0.00,WUHU216DAVISVP2,2013-04-30 13:27:00,
2013-04-30 09:32:00,61.5,25.2,30.28,NE,38,3.0,3.0,25,0.00,,,0.00,WUHU216DAVISVP2,2013-04-30 13:32:00,
2013-04-30 09:37:00,61.8,27.3,30.28,ESE,122,1.5,4.0,27,0.00,,,0.00,WUHU216DAVISVP2,2013-04-30 13:37:00,
2013-04-30 09:42:00,61.9,29.1,30.28,NE,37,2.5,4.0,29,0.00,,,0.00,WUHU216DAVISVP2,2013-04-30 13:42:00,
2013-04-30 09:47:00,62.2,28.5,30.28,West,263,1.0,4.0,28,0.00,,,0.00,WUHU216DAVISVP2,2013-04-30 13:47:00,
2013-04-30 09:52:00,62.4,27.8,30.28,NNW,342,1.8,4.0,27,0.00,,,0.00,WUHU216DAVISVP2,2013-04-30 13:52:00,
2013-04-30 09:57:00,62.8,29.0,30.28,SSE,167,3.0,4.0,28,0.00,,,0.00,WUHU216DAVISVP2,2013-04-30 13:57:00,
2013-04-30 10:02:00,63.1,28.4,30.27,SW,219,4.0,6.0,27,0.00,,,0.00,WUHU216DAVISVP2,2013-04-30 14:02:00,
2013-04-30 10:07:00,63.4,27.7,30.27,West,268,5.0,7.0,26,0.00,,,0.00,WUHU216DAVISVP2,2013-04-30 14:07:00,
2013-04-30 10:12:00,63.6,29.7,30.28,SSW,199,2.9,7.0,28,0.00,,,0.00,WUHU216DAVISVP2,2013-04-30 14:12:00,
2013-04-30 10:17:00,64.0,28.3,30.27,SE,145,1.2,7.0,26,0.00,,,0.00,WUHU216DAVISVP2,2013-04-30 14:17:00,
2013-04-30 10:22:00,64.5,28.7,30.27,SSW,202,2.0,7.0,26,0.00,,,0.00,WUHU216DAVISVP2,2013-04-30 14:22:00,
2013-04-30 10:27:00,64.9,29.0,30.27,South,189,2.5,7.0,26,0.00,,,0.00,WUHU216DAVISVP2,2013-04-30 14:27:00,
2013-04-30 10:32:00,65.2,31.1,30.27,SW,225,2.0,5.0,28,0.00,,,0.00,WUHU216DAVISVP2,2013-04-30 14:32:00,
2013-04-30 10:37:00,65.3,30.3,30.27,South,177,1.7,5.0,27,0.00,,,0.00,WUHU216DAVISVP2,2013-04-30 14:37:00,
2013-04-30 10:42:00,65.6,31.4,30.27,South,187,1.8,5.0,28,0.00,,,0.00,WUHU216DAVISVP2,2013-04-30 14:42:00,
2013-04-30 10:47:00,65.4,31.3,30.27,SW,224,4.1,8.0,28,0.00,,,0.00,WUHU216DAVISVP2,2013-04-30 14:47:00,
2013-04-30 10:52:00,65.2,31.9,30.27,SE,130,2.2,8.0,29,0.00,,,0.00,WUHU216DAVISVP2,2013-04-30 14:52:00,
2013-04-30 10:57:00,65.3,31.2,30.27,ENE,65,1.9,7.0,28,0.00,,,0.00,WUHU216DAVISVP2,2013-04-30 14:57:00,
2013-04-30 11:02:00,65.7,32.4,30.27,West,270,3.3,7.0,29,0.00,,,0.00,WUHU216DAVISVP2,2013-04-30 15:02:00,
2013-04-30 11:07:00,66.2,33.6,30.27,SSW,211,5.0,7.0,30,0.00,,,0.00,WUHU216DAVISVP2,2013-04-30 15:07:00,
2013-04-30 11:12:00,66.4,35.4,30.27,SSW,211,3.0,7.0,32,0.00,,,0.00,WUHU216DAVISVP2,2013-04-30 15:12:00,
2013-04-30 11:17:00,66.7,34.1,30.27,WNW,285,1.5,7.0,30,0.00,,,0.00,WUHU216DAVISVP2,2013-04-30 15:17:00,
2013-04-30 11:22:00,67.1,35.2,30.27,West,261,2.3,7.0,31,0.00,,,0.00,WUHU216DAVISVP2,2013-04-30 15:22:00,
2013-04-30 11:27:00,67.1,34.4,30.27,South,170,2.6,7.0,30,0.00,,,0.00,WUHU216DAVISVP2,2013-04-30 15:27:00,
2013-04-30 11:32:00,67.4,34.7,30.27,SE,140,3.0,7.0,30,0.00,,,0.00,WUHU216DAVISVP2,2013-04-30 15:32:00,
2013-04-30 11:37:00,67.7,35.0,30.27,SSE,151,2.3,7.0,30,0.00,,,0.00,WUHU216DAVISVP2,2013-04-30 15:37:00,
2013-04-30 11:42:00,67.6,34.0,30.26,SSE,153,3.0,7.0,29,0.00,,,0.00,WUHU216DAVISVP2,2013-04-30 15:42:00,
2013-04-30 11:47:00,67.7,34.1,30.26,SSW,192,3.0,7.0,29,0.00,,,0.00,WUHU216DAVISVP2,2013-04-30 15:47:00,
2013-04-30 11:52:00,67.7,33.2,30.26,SE,129,2.0,8.0,28,0.00,,,0.00,WUHU216DAVISVP2,2013-04-30 15:52:00,
2013-04-30 11:57:00,67.8,33.3,30.26,ESE,113,3.0,8.0,28,0.00,,,0.00,WUHU216DAVISVP2,2013-04-30 15:57:00,
2013-04-30 12:02:00,67.7,33.2,30.26,SSE,164,5.1,8.0,28,0.00,,,0.00,WUHU216DAVISVP2,2013-04-30 16:02:00,
2013-04-30 12:07:00,67.6,33.2,30.26,WSW,242,4.6,8.0,28,0.00,,,0.00,WUHU216DAVISVP2,2013-04-30 16:07:00,
2013-04-30 12:12:00,67.5,32.2,30.25,SW,233,1.8,8.0,27,0.00,,,0.00,WUHU216DAVISVP2,2013-04-30 16:12:00,
2013-04-30 12:17:00,67.5,33.1,30.25,WSW,239,3.7,9.0,28,0.00,,,0.00,WUHU216DAVISVP2,2013-04-30 16:17:00,
2013-04-30 12:22:00,68.1,34.5,30.25,SSW,192,4.0,9.0,29,0.00,,,0.00,WUHU216DAVISVP2,2013-04-30 16:22:00,
2013-04-30 12:27:00,68.6,34.0,30.25,SSE,159,2.5,9.0,28,0.00,,,0.00,WUHU216DAVISVP2,2013-04-30 16:27:00,
2013-04-30 12:32:00,68.4,32.9,30.25,ESE,104,2.7,9.0,27,0.00,,,0.00,WUHU216DAVISVP2,2013-04-30 16:32:00,
2013-04-30 12:36:00,68.5,33.9,30.25,NNE,31,1.8,7.0,28,0.00,,,0.00,WUHU216DAVISVP2,2013-04-30 16:36:00,
2013-04-30 12:41:00,68.8,33.3,30.25,South,181,1.6,5.0,27,0.00,,,0.00,WUHU216DAVISVP2,2013-04-30 16:41:00,
2013-04-30 12:47:00,69.3,33.7,30.25,South,181,2.9,8.0,27,0.00,,,0.00,WUHU216DAVISVP2,2013-04-30 16:47:00,
2013-04-30 12:52:00,69.3,33.7,30.25,SSE,154,3.3,8.0,27,0.00,,,0.00,WUHU216DAVISVP2,2013-04-30 16:52:00,
2013-04-30 12:57:00,68.8,32.4,30.25,SSW,193,2.3,8.0,26,0.00,,,0.00,WUHU216DAVISVP2,2013-04-30 16:57:00,
2013-04-30 13:02:00,69.3,34.6,30.25,SSE,150,4.0,8.0,28,0.00,,,0.00,WUHU216DAVISVP2,2013-04-30 17:02:00,
2013-04-30 13:07:00,69.3,32.8,30.25,SE,134,2.5,8.0,26,0.00,,,0.00,WUHU216DAVISVP2,2013-04-30 17:07:00,
2013-04-30 13:12:00,69.3,32.8,30.24,West,263,1.4,8.0,26,0.00,,,0.00,WUHU216DAVISVP2,2013-04-30 17:12:00,
2013-04-30 13:17:00,69.9,33.3,30.24,SE,138,4.0,6.0,26,0.00,,,0.00,WUHU216DAVISVP2,2013-04-30 17:17:00,
2013-04-30 13:21:00,69.8,33.2,30.25,WSW,243,3.6,8.0,26,0.00,,,0.00,WUHU216DAVISVP2,2013-04-30 17:21:00,
2013-04-30 13:27:00,69.7,35.0,30.24,NW,305,1.0,8.0,28,0.00,,,0.00,WUHU216DAVISVP2,2013-04-30 17:27:00,
2013-04-30 13:32:00,69.9,33.3,30.25,WSW,248,3.0,8.0,26,0.00,,,0.00,WUHU216DAVISVP2,2013-04-30 17:32:00,
2013-04-30 13:36:00,69.7,34.1,30.24,SW,215,2.4,8.0,27,0.00,,,0.00,WUHU216DAVISVP2,2013-04-30 17:36:00,
2013-04-30 13:41:00,70.0,33.4,30.24,South,173,2.0,7.0,26,0.00,,,0.00,WUHU216DAVISVP2,2013-04-30 17:41:00,
2013-04-30 13:46:00,69.8,32.3,30.24,SE,146,2.7,7.0,25,0.00,,,0.00,WUHU216DAVISVP2,2013-04-30 17:46:00,
2013-04-30 13:51:00,69.4,32.9,30.24,NW,316,1.1,7.0,26,0.00,,,0.00,WUHU216DAVISVP2,2013-04-30 17:51:00,
2013-04-30 13:56:00,69.9,33.3,30.24,SE,134,1.7,8.0,26,0.00,,,0.00,WUHU216DAVISVP2,2013-04-30 17:56:00,
2013-04-30 14:01:00,70.1,33.5,30.24,NE,52,4.0,8.0,26,0.00,,,0.00,WUHU216DAVISVP2,2013-04-30 18:01:00,
2013-04-30 14:06:00,70.2,35.4,30.24,ESE,110,1.2,8.0,28,0.00,,,0.00,WUHU216DAVISVP2,2013-04-30 18:06:00,
2013-04-30 14:11:00,70.4,32.8,30.24,South,179,3.5,8.0,25,0.00,,,0.00,WUHU216DAVISVP2,2013-04-30 18:11:00,
2013-04-30 14:16:00,70.2,33.6,30.24,West,275,5.0,6.0,26,0.00,,,0.00,WUHU216DAVISVP2,2013-04-30 18:16:00,
2013-04-30 14:21:00,70.6,33.9,30.24,ESE,112,3.0,6.0,26,0.00,,,0.00,WUHU216DAVISVP2,2013-04-30 18:21:00,
2013-04-30 14:26:00,70.8,33.1,30.24,SSE,159,3.0,6.0,25,0.00,,,0.00,WUHU216DAVISVP2,2013-04-30 18:26:00,
2013-04-30 14:31:00,70.6,32.9,30.24,South,173,1.8,5.0,25,0.00,,,0.00,WUHU216DAVISVP2,2013-04-30 18:31:00,
2013-04-30 14:36:00,70.9,33.2,30.24,SE,126,2.3,7.0,25,0.00,,,0.00,WUHU216DAVISVP2,2013-04-30 18:36:00,
2013-04-30 14:41:00,70.5,33.8,30.24,East,81,1.0,7.0,26,0.00,,,0.00,WUHU216DAVISVP2,2013-04-30 18:41:00,
2013-04-30 14:46:00,70.7,33.0,30.24,SSE,161,2.0,7.0,25,0.00,,,0.00,WUHU216DAVISVP2,2013-04-30 18:46:00,
2013-04-30 14:51:00,70.7,33.0,30.23,SE,146,2.2,7.0,25,0.00,,,0.00,WUHU216DAVISVP2,2013-04-30 18:51:00,
2013-04-30 14:56:00,70.7,32.0,30.23,SW,223,3.3,8.0,24,0.00,,,0.00,WUHU216DAVISVP2,2013-04-30 18:56:00,
2013-04-30 15:01:00,70.8,33.1,30.24,WSW,258,6.0,8.0,25,0.00,,,0.00,WUHU216DAVISVP2,2013-04-30 19:01:00,
2013-04-30 15:06:00,71.1,37.0,30.23,NE,53,3.0,8.0,29,0.00,,,0.00,WUHU216DAVISVP2,2013-04-30 19:06:00,
2013-04-30 15:11:00,71.0,34.2,30.23,ENE,59,1.2,8.0,26,0.00,,,0.00,WUHU216DAVISVP2,2013-04-30 19:11:00,
2013-04-30 15:16:00,71.0,33.3,30.23,SW,217,2.0,8.0,25,0.00,,,0.00,WUHU216DAVISVP2,2013-04-30 19:16:00,
2013-04-30 15:21:00,70.8,32.1,30.23,NNW,330,2.3,7.0,24,0.00,,,0.00,WUHU216DAVISVP2,2013-04-30 19:21:00,
2013-04-30 15:26:00,71.0,33.3,30.23,WSW,243,1.5,7.0,25,0.00,,,0.00,WUHU216DAVISVP2,2013-04-30 19:26:00,
2013-04-30 15:31:00,71.3,32.5,30.23,ENE,75,3.0,6.0,24,0.00,,,0.00,WUHU216DAVISVP2,2013-04-30 19:31:00,
2013-04-30 15:36:00,71.6,32.8,30.23,SW,230,4.4,8.0,24,0.00,,,0.00,WUHU216DAVISVP2,2013-04-30 19:36:00,
2013-04-30 15:41:00,71.8,32.9,30.23,ESE,117,2.6,8.0,24,0.00,,,0.00,WUHU216DAVISVP2,2013-04-30 19:41:00,
2013-04-30 15:46:00,71.5,33.7,30.23,ESE,103,1.2,8.0,25,0.00,,,0.00,WUHU216DAVISVP2,2013-04-30 19:46:00,
2013-04-30 15:51:00,72.2,35.3,30.23,SSW,205,1.0,7.0,26,0.00,,,0.00,WUHU216DAVISVP2,2013-04-30 19:51:00,
2013-04-30 15:56:00,72.5,33.5,30.23,WSW,238,4.0,8.0,24,0.00,,,0.00,WUHU216DAVISVP2,2013-04-30 19:56:00,
2013-04-30 16:01:00,72.2,33.3,30.23,SSE,163,1.9,8.0,24,0.00,,,0.00,WUHU216DAVISVP2,2013-04-30 20:01:00,
2013-04-30 16:06:00,71.9,33.0,30.23,SSE,148,4.0,8.0,24,0.00,,,0.00,WUHU216DAVISVP2,2013-04-30 20:06:00,
2013-04-30 16:11:00,71.5,32.7,30.23,SE,124,2.0,8.0,24,0.00,,,0.00,WUHU216DAVISVP2,2013-04-30 20:11:00,
2013-04-30 16:16:00,71.6,34.8,30.23,East,101,1.3,8.0,26,0.00,,,0.00,WUHU216DAVISVP2,2013-04-30 20:16:00,
2013-04-30 16:21:00,71.5,33.7,30.23,NE,55,2.5,8.0,25,0.00,,,0.00,WUHU216DAVISVP2,2013-04-30 20:21:00,
2013-04-30 16:26:00,71.6,31.7,30.23,SW,234,1.7,5.0,23,0.00,,,0.00,WUHU216DAVISVP2,2013-04-30 20:26:00,
2013-04-30 16:31:00,72.0,34.2,30.23,WNW,292,1.3,5.0,25,0.00,,,0.00,WUHU216DAVISVP2,2013-04-30 20:31:00,
2013-04-30 16:36:00,72.5,32.6,30.23,WSW,237,3.0,5.0,23,0.00,,,0.00,WUHU216DAVISVP2,2013-04-30 20:36:00,
2013-04-30 16:41:00,72.3,32.4,30.23,South,188,1.9,5.0,23,0.00,,,0.00,WUHU216DAVISVP2,2013-04-30 20:41:00,
2013-04-30 16:46:00,72.1,32.2,30.23,WSW,257,1.6,5.0,23,0.00,,,0.00,WUHU216DAVISVP2,2013-04-30 20:46:00,
2013-04-30 16:51:00,72.1,32.2,30.23,SSE,148,2.1,5.0,23,0.00,,,0.00,WUHU216DAVISVP2,2013-04-30 20:51:00,
2013-04-30 16:56:00,72.0,33.1,30.23,SSW,207,1.3,5.0,24,0.00,,,0.00,WUHU216DAVISVP2,2013-04-30 20:56:00,
2013-04-30 17:01:00,72.0,32.1,30.23,SSE,162,2.1,5.0,23,0.00,,,0.00,WUHU216DAVISVP2,2013-04-30 21:01:00,
2013-04-30 17:06:00,71.7,32.9,30.23,SSW,198,1.6,5.0,24,0.00,,,0.00,WUHU216DAVISVP2,2013-04-30 21:06:00,
2013-04-30 17:11:00,71.2,31.4,30.23,NE,39,2.9,6.0,23,0.00,,,0.00,WUHU216DAVISVP2,2013-04-30 21:11:00,
2013-04-30 17:16:00,70.8,32.1,30.23,East,84,1.5,6.0,24,0.00,,,0.00,WUHU216DAVISVP2,2013-04-30 21:16:00,
2013-04-30 17:21:00,71.0,33.3,30.23,South,188,2.0,6.0,25,0.00,,,0.00,WUHU216DAVISVP2,2013-04-30 21:21:00,
2013-04-30 17:26:00,71.1,32.5,30.23,South,173,1.0,6.0,24,0.00,,,0.00,WUHU216DAVISVP2,2013-04-30 21:26:00,
2013-04-30 17:31:00,71.5,32.8,30.23,South,187,1.5,4.0,24,0.00,,,0.00,WUHU216DAVISVP2,2013-04-30 21:31:00,
2013-04-30 17:36:00,71.5,31.7,30.23,SW,225,2.1,5.0,23,0.00,,,0.00,WUHU216DAVISVP2,2013-04-30 21:36:00,
2013-04-30 17:41:00,71.3,32.6,30.23,SSW,201,2.0,6.0,24,0.00,,,0.00,WUHU216DAVISVP2,2013-04-30 21:41:00,
2013-04-30 17:46:00,71.0,32.4,30.23,SE,139,1.5,6.0,24,0.00,,,0.00,WUHU216DAVISVP2,2013-04-30 21:46:00,
2013-04-30 17:51:00,70.6,30.9,30.23,SE,140,2.0,6.0,23,0.00,,,0.00,WUHU216DAVISVP2,2013-04-30 21:51:00,
2013-04-30 17:56:00,70.3,30.6,30.23,SE,138,4.0,5.0,23,0.00,,,0.00,WUHU216DAVISVP2,2013-04-30 21:56:00,
2013-04-30 18:01:00,69.7,30.1,30.24,SE,146,2.0,7.0,23,0.00,,,0.00,WUHU216DAVISVP2,2013-04-30 22:01:00,
2013-04-30 18:06:00,69.3,29.8,30.24,ESE,113,3.1,7.0,23,0.00,,,0.00,WUHU216DAVISVP2,2013-04-30 22:06:00,
2013-04-30 18:11:00,69.1,29.6,30.24,WSW,246,3.0,7.0,23,0.00,,,0.00,WUHU216DAVISVP2,2013-04-30 22:11:00,
2013-04-30 18:16:00,68.9,30.5,30.24,SE,140,3.5,9.0,24,0.00,,,0.00,WUHU216DAVISVP2,2013-04-30 22:16:00,
2013-04-30 18:21:00,68.7,30.3,30.24,SSE,161,3.0,9.0,24,0.00,,,0.00,WUHU216DAVISVP2,2013-04-30 22:21:00,
2013-04-30 18:26:00,68.5,31.1,30.24,SSE,167,5.0,9.0,25,0.00,,,0.00,WUHU216DAVISVP2,2013-04-30 22:26:00,
2013-04-30 18:31:00,68.2,29.9,30.24,SSE,149,2.2,9.0,24,0.00,,,0.00,WUHU216DAVISVP2,2013-04-30 22:31:00,
2013-04-30 18:36:00,68.0,30.7,30.25,South,169,3.0,6.0,25,0.00,,,0.00,WUHU216DAVISVP2,2013-04-30 22:36:00,
2013-04-30 18:41:00,67.7,30.5,30.25,SE,140,2.0,6.0,25,0.00,,,0.00,WUHU216DAVISVP2,2013-04-30 22:41:00,
2013-04-30 18:46:00,67.4,30.2,30.25,South,174,2.1,6.0,25,0.00,,,0.00,WUHU216DAVISVP2,2013-04-30 22:46:00,
2013-04-30 18:51:00,67.1,30.9,30.25,SSE,148,3.0,6.0,26,0.00,,,0.00,WUHU216DAVISVP2,2013-04-30 22:51:00,
2013-04-30 18:56:00,66.9,31.7,30.25,SSE,161,1.0,6.0,27,0.00,,,0.00,WUHU216DAVISVP2,2013-04-30 22:56:00,
2013-04-30 19:01:00,66.6,31.4,30.25,SSE,165,1.0,5.0,27,0.00,,,0.00,WUHU216DAVISVP2,2013-04-30 23:01:00,
2013-04-30 19:06:00,66.3,31.1,30.25,SSW,203,2.6,6.0,27,0.00,,,0.00,WUHU216DAVISVP2,2013-04-30 23:06:00,
2013-04-30 19:11:00,66.1,31.0,30.25,South,178,1.0,6.0,27,0.00,,,0.00,WUHU216DAVISVP2,2013-04-30 23:11:00,
2013-04-30 19:16:00,65.8,31.6,30.26,South,178,1.0,6.0,28,0.00,,,0.00,WUHU216DAVISVP2,2013-04-30 23:16:00,
2013-04-30 19:21:00,65.5,31.3,30.26,SSE,157,1.0,6.0,28,0.00,,,0.00,WUHU216DAVISVP2,2013-04-30 23:21:00,
2013-04-30 19:26:00,65.3,31.2,30.26,SSE,157,0.0,2.0,28,0.00,,,0.00,WUHU216DAVISVP2,2013-04-30 23:26:00,
2013-04-30 19:31:00,64.9,30.8,30.26,SSE,153,1.8,3.0,28,0.00,,,0.00,WUHU216DAVISVP2,2013-04-30 23:31:00,
2013-04-30 19:36:00,64.7,30.7,30.26,SSE,150,1.0,3.0,28,0.00,,,0.00,WUHU216DAVISVP2,2013-04-30 23:36:00,
2013-04-30 19:41:00,64.3,31.2,30.27,SSE,150,1.0,3.0,29,0.00,,,0.00,WUHU216DAVISVP2,2013-04-30 23:41:00,
2013-04-30 19:46:00,63.9,31.6,30.27,SSE,150,1.0,3.0,30,0.00,,,0.00,WUHU216DAVISVP2,2013-04-30 23:46:00,
2013-04-30 19:51:00,63.6,31.4,30.27,SSE,150,0.0,2.0,30,0.00,,,0.00,WUHU216DAVISVP2,2013-04-30 23:51:00,
2013-04-30 19:56:00,63.1,32.5,30.27,SSE,150,0.0,2.0,32,0.00,,,0.00,WUHU216DAVISVP2,2013-04-30 23:56:00,
2013-04-30 20:01:00,62.6,32.1,30.27,SSE,150,0.0,1.0,32,0.00,,,0.00,WUHU216DAVISVP2,2013-05-01 00:01:00,
2013-04-30 20:06:00,62.0,33.8,30.28,SSE,150,0.0,1.0,35,0.00,,,0.00,WUHU216DAVISVP2,2013-05-01 00:06:00,
2013-04-30 20:11:00,61.5,34.3,30.28,West,275,0.0,2.0,36,0.00,,,0.00,WUHU216DAVISVP2,2013-05-01 00:11:00,
2013-04-30 20:16:00,61.1,33.7,30.28,West,275,0.0,2.0,36,0.00,,,0.00,WUHU216DAVISVP2,2013-05-01 00:16:00,
2013-04-30 20:21:00,60.5,33.2,30.28,West,275,0.0,2.0,36,0.00,,,0.00,WUHU216DAVISVP2,2013-05-01 00:21:00,
2013-04-30 20:26:00,59.8,33.3,30.28,West,275,0.0,1.0,37,0.00,,,0.00,WUHU216DAVISVP2,2013-05-01 00:26:00,
2013-04-30 20:31:00,59.4,33.8,30.28,West,275,0.0,1.0,38,0.00,,,0.00,WUHU216DAVISVP2,2013-05-01 00:31:00,
2013-04-30 20:36:00,59.0,33.4,30.28,West,275,0.0,1.0,38,0.00,,,0.00,WUHU216DAVISVP2,2013-05-01 00:36:00,
2013-04-30 20:41:00,58.4,34.0,30.28,West,275,0.0,1.0,40,0.00,,,0.00,WUHU216DAVISVP2,2013-05-01 00:41:00,
2013-04-30 20:46:00,57.7,32.7,30.29,West,275,0.0,0.0,39,0.00,,,0.00,WUHU216DAVISVP2,2013-05-01 00:46:00,
2013-04-30 20:51:00,57.2,32.9,30.29,West,275,0.0,0.0,40,0.00,,,0.00,WUHU216DAVISVP2,2013-05-01 00:51:00,
2013-04-30 20:56:00,56.7,32.5,30.29,West,275,0.0,0.0,40,0.00,,,0.00,WUHU216DAVISVP2,2013-05-01 00:56:00,
2013-04-30 21:01:00,56.4,33.4,30.29,West,275,0.0,0.0,42,0.00,,,0.00,WUHU216DAVISVP2,2013-05-01 01:01:00,
2013-04-30 21:06:00,56.0,34.3,30.29,West,275,0.0,0.0,44,0.00,,,0.00,WUHU216DAVISVP2,2013-05-01 01:06:00,
2013-04-30 21:11:00,55.5,33.2,30.30,West,275,0.0,0.0,43,0.00,,,0.00,WUHU216DAVISVP2,2013-05-01 01:11:00,
2013-04-30 21:16:00,55.0,32.8,30.30,West,275,0.0,0.0,43,0.00,,,0.00,WUHU216DAVISVP2,2013-05-01 01:16:00,
2013-04-30 21:21:00,54.6,35.8,30.30,West,275,0.0,0.0,49,0.00,,,0.00,WUHU216DAVISVP2,2013-05-01 01:21:00,
2013-04-30 21:26:00,54.2,34.9,30.30,West,275,0.0,0.0,48,0.00,,,0.00,WUHU216DAVISVP2,2013-05-01 01:26:00,
2013-04-30 21:31:00,53.9,36.7,30.30,West,275,0.0,0.0,52,0.00,,,0.00,WUHU216DAVISVP2,2013-05-01 01:31:00,
2013-04-30 21:36:00,53.5,36.3,30.30,West,275,0.0,0.0,52,0.00,,,0.00,WUHU216DAVISVP2,2013-05-01 01:36:00,
2013-04-30 21:41:00,53.0,36.3,30.30,West,275,0.0,0.0,53,0.00,,,0.00,WUHU216DAVISVP2,2013-05-01 01:41:00,
2013-04-30 21:46:00,52.5,36.4,30.30,West,275,0.0,0.0,54,0.00,,,0.00,WUHU216DAVISVP2,2013-05-01 01:46:00,
2013-04-30 21:51:00,52.2,35.1,30.31,West,275,0.0,0.0,52,0.00,,,0.00,WUHU216DAVISVP2,2013-05-01 01:51:00,
2013-04-30 21:56:00,51.7,35.1,30.31,West,275,0.0,0.0,53,0.00,,,0.00,WUHU216DAVISVP2,2013-05-01 01:56:00,
2013-04-30 22:01:00,51.4,35.3,30.31,West,275,0.0,0.0,54,0.00,,,0.00,WUHU216DAVISVP2,2013-05-01 02:01:00,
2013-04-30 22:06:00,51.0,35.0,30.31,West,275,0.0,0.0,54,0.00,,,0.00,WUHU216DAVISVP2,2013-05-01 02:06:00,
2013-04-30 22:11:00,50.6,35.1,30.31,West,275,0.0,0.0,55,0.00,,,0.00,WUHU216DAVISVP2,2013-05-01 02:11:00,
2013-04-30 22:16:00,50.4,36.3,30.31,West,275,0.0,0.0,58,0.00,,,0.00,WUHU216DAVISVP2,2013-05-01 02:16:00,
2013-04-30 22:21:00,50.0,38.7,30.32,West,275,0.0,0.0,65,0.00,,,0.00,WUHU216DAVISVP2,2013-05-01 02:21:00,
2013-04-30 22:26:00,49.5,37.4,30.32,West,275,0.0,1.0,63,0.00,,,0.00,WUHU216DAVISVP2,2013-05-01 02:26:00,
2013-04-30 22:31:00,49.3,37.2,30.32,West,275,0.0,1.0,63,0.00,,,0.00,WUHU216DAVISVP2,2013-05-01 02:31:00,
2013-04-30 22:36:00,49.1,37.6,30.32,West,275,0.0,1.0,64,0.00,,,0.00,WUHU216DAVISVP2,2013-05-01 02:36:00,
2013-04-30 22:41:00,48.9,37.8,30.32,West,275,0.0,0.0,65,0.00,,,0.00,WUHU216DAVISVP2,2013-05-01 02:41:00,
2013-04-30 22:46:00,48.7,37.2,30.32,West,275,0.0,0.0,64,0.00,,,0.00,WUHU216DAVISVP2,2013-05-01 02:46:00,
2013-04-30 22:51:00,48.5,37.4,30.32,West,275,0.0,0.0,65,0.00,,,0.00,WUHU216DAVISVP2,2013-05-01 02:51:00,
2013-04-30 22:56:00,48.4,38.1,30.32,West,275,0.0,0.0,67,0.00,,,0.00,WUHU216DAVISVP2,2013-05-01 02:56:00,
2013-04-30 23:01:00,48.3,38.0,30.32,West,275,0.0,0.0,67,0.00,,,0.00,WUHU216DAVISVP2,2013-05-01 03:01:00,
2013-04-30 23:06:00,48.1,37.8,30.32,West,275,0.0,0.0,67,0.00,,,0.00,WUHU216DAVISVP2,2013-05-01 03:06:00,
2013-04-30 23:11:00,47.9,37.2,30.33,West,275,0.0,0.0,66,0.00,,,0.00,WUHU216DAVISVP2,2013-05-01 03:11:00,
2013-04-30 23:16:00,47.6,36.4,30.33,West,275,0.0,0.0,65,0.00,,,0.00,WUHU216DAVISVP2,2013-05-01 03:16:00,
2013-04-30 23:21:00,47.4,37.0,30.33,West,275,0.0,0.0,67,0.00,,,0.00,WUHU216DAVISVP2,2013-05-01 03:21:00,
2013-04-30 23:26:00,47.1,36.3,30.33,West,275,0.0,0.0,66,0.00,,,0.00,WUHU216DAVISVP2,2013-05-01 03:26:00,
2013-04-30 23:31:00,46.9,36.5,30.33,West,275,0.0,0.0,67,0.00,,,0.00,WUHU216DAVISVP2,2013-05-01 03:31:00,
2013-04-30 23:36:00,46.6,36.6,30.33,West,275,0.0,0.0,68,0.00,,,0.00,WUHU216DAVISVP2,2013-05-01 03:36:00,
2013-04-30 23:41:00,46.3,36.7,30.33,West,275,0.0,0.0,69,0.00,,,0.00,WUHU216DAVISVP2,2013-05-01 03:41:00,
2013-04-30 23:46:00,46.1,37.9,30.33,West,275,0.0,0.0,73,0.00,,,0.00,WUHU216DAVISVP2,2013-05-01 03:46:00,
2013-04-30 23:51:00,45.9,38.5,30.33,West,275,0.0,0.0,75,0.00,,,0.00,WUHU216DAVISVP2,2013-05-01 03:51:00,
2013-04-30 23:56:00,45.6,37.9,30.33,West,275,0.0,0.0,74,0.00,,,0.00,WUHU216DAVISVP2,2013-05-01 03:56:00,